TimeCST,TemperatureF,Dew PointF,Humidity,Sea Level PressureIn,VisibilityMPH,Wind Direction,Wind SpeedMPH,Gust SpeedMPH,PrecipitationIn,Events,Conditions,WindDirDegrees,DateUTC
12:53 AM,35.1,33.1,92,30.30,10.0,Calm,Calm,-,N/A,,Clear,0,2013-02-20 06:53:00
1:53 AM,37.0,34.0,89,30.30,10.0,Calm,Calm,-,N/A,,Clear,0,2013-02-20 07:53:00
2:53 AM,36.0,34.0,93,30.30,10.0,NNE,4.6,-,N/A,,Clear,30,2013-02-20 08:53:00
3:53 AM,37.0,30.0,76,30.28,10.0,NNE,9.2,-,N/A,,Clear,30,2013-02-20 09:53:00
4:53 AM,37.9,30.0,73,30.29,10.0,NE,10.4,-,N/A,,Clear,40,2013-02-20 10:53:00
5:53 AM,39.0,27.0,62,30.28,10.0,NE,11.5,-,N/A,,Clear,50,2013-02-20 11:53:00
6:53 AM,37.9,25.0,60,30.32,10.0,NE,9.2,-,N/A,,Partly Cloudy,40,2013-02-20 12:53:00
7:53 AM,37.9,26.1,62,30.35,10.0,NNE,10.4,-,N/A,,Overcast,20,2013-02-20 13:53:00
8:53 AM,37.9,24.1,57,30.34,10.0,ENE,10.4,-,N/A,,Scattered Clouds,60,2013-02-20 14:53:00
9:53 AM,39.0,21.0,49,30.32,10.0,East,11.5,-,N/A,,Partly Cloudy,90,2013-02-20 15:53:00
10:53 AM,39.0,24.1,55,30.31,10.0,NE,13.8,-,N/A,,Scattered Clouds,50,2013-02-20 16:53:00
11:53 AM,37.9,25.0,60,30.33,10.0,NE,11.5,-,0.00,Rain,Light Rain,40,2013-02-20 17:53:00
12:53 PM,39.0,28.9,67,30.25,10.0,NNE,16.1,21.9,0.02,,Mostly Cloudy,30,2013-02-20 18:53:00
1:53 PM,39.2,26.6,61,30.22,10.0,ENE,9.2,-,N/A,,Clear,60,2013-02-20 19:53:00
2:53 PM,42.8,26.6,53,30.22,10.0,NE,8.1,-,N/A,,Clear,40,2013-02-20 20:53:00
3:53 PM,43.0,28.0,56,30.22,10.0,NE,10.4,-,N/A,,Partly Cloudy,50,2013-02-20 21:53:00
4:53 PM,41.0,28.9,62,30.19,10.0,NE,10.4,-,N/A,,Mostly Cloudy,50,2013-02-20 22:53:00
5:53 PM,39.9,27.0,60,30.20,10.0,NNE,10.4,-,N/A,,Overcast,30,2013-02-20 23:53:00
6:53 PM,39.0,28.0,65,30.21,10.0,NNE,12.7,-,0.00,Rain,Light Rain,30,2013-02-21 00:53:00
7:53 PM,39.0,28.0,65,30.18,10.0,NE,12.7,-,0.00,,Overcast,50,2013-02-21 01:53:00
8:53 PM,39.0,28.0,65,30.18,10.0,NE,10.4,-,N/A,,Overcast,40,2013-02-21 02:53:00
9:53 PM,39.0,30.0,70,30.17,10.0,NE,11.5,-,N/A,,Overcast,50,2013-02-21 03:53:00
10:53 PM,39.9,26.1,58,30.16,10.0,ENE,9.2,-,N/A,,Overcast,60,2013-02-21 04:53:00
11:53 PM,39.9,25.0,55,30.14,10.0,ENE,11.5,-,N/A,,Overcast,70,2013-02-21 05:53:00